Location: Olda
(45.8833°N, 9.5500°E)
Time: 06:17:26
(UTC+00:00)

CZ-2C R/B - Pass Details

Date: 03 March 2021
Orbit: 784 x 871 km, 98.2° (Epoch: 10 April)

Event Time Altitude Azimuth Distance (km) Brightness Sun altitude
Rises 18:00:33 0° 18° (NNE) 3,430 5.7 -9.4°
Reaches altitude 10° 18:03:04 10° 25° (NNE) 2,477 4.9 -9.8°
Maximum altitude 18:08:20 45° 98° (E) 1,117 2.9 -10.7°
Drops below altitude 10° 18:13:26 10° 171° (S) 2,405 5.0 -11.6°
Sets 18:15:51 0° 177° (S) 3,319 5.7 -12.0°
